Location: Rochester
(43.1610°N, 77.6109°W)
Time: 01:11:22
(UTC-05:00)

CAS-4A - Pass Details

Date: 25 October 2021
Orbit: 529 x 539 km, 43.0° (Epoch: 30 November)

Event Time Altitude Azimuth Distance (km) Brightness Sun altitude
Rises 19:01:46 0° 281° (W) 2,688 ? -9.8°
Reaches altitude 10° 19:04:04 10° 275° (W) 1,795 ? -10.2°
Maximum altitude 19:08:00 46° 202° (SSW) 727 ? -10.9°
Drops below altitude 10° 19:11:56 10° 129° (SE) 1,786 ? -11.6°
Enters shadow 19:12:12 - 128° (SE) 1,889 ? -11.7°
